AL7BX-WX Weather Reports


Display with metric or nautical units.
time (UTC)temp
F
wind
direction
speed
MPH
gust
MPH
rain 1hr
in
rain 24hr
in
rain mn
in
humidity
%
barometer
mb
20260506061803 54 205 2.0 5.0 0.00 0.00 0.00 41
20260506060903 54 208 0.0 3.0 0.00 0.00 0.00 42
20260506050903 54 208 1.0 3.0 0.00 0.00 0.00 41
20260506044503 54 234 1.0 3.0 0.00 0.00 0.00 43
20260506043603 54 252 1.0 3.0 0.00 0.00 0.00 43
20260506042703 55 252 0.0 2.0 0.00 0.00 0.00 42
20260506041803 55 246 3.0 6.0 0.00 0.00 0.00 42
20260506040903 55 251 5.0 9.0 0.00 0.00 0.00 42
20260506040004 55 249 4.0 9.0 0.00 0.00 0.00 41
20260506035403 55 251 5.0 9.0 0.00 0.00 0.00 41
20260506034503 55 259 6.0 11.0 0.00 0.00 0.00 40
20260506033813 55 255 3.0 9.0 0.00 0.00 0.00 41
20260506032703 55 245 3.0 7.0 0.00 0.00 0.00 40
20260506032014 55 244 3.0 7.0 0.00 0.00 0.00 40
20260506030903 56 263 4.0 7.0 0.00 0.00 0.00 39
20260506030003 56 268 6.0 11.0 0.00 0.00 0.00 39
20260506025614 56 274 7.0 11.0 0.00 0.00 0.00 39
20260506024503 57 278 9.0 16.0 0.00 0.00 0.00 38
20260506023813 57 276 8.0 12.0 0.00 0.00 0.00 38
20260506022703 57 279 10.0 14.0 0.00 0.00 0.00 37
20260506022014 57 285 10.0 14.0 0.00 0.00 0.00 38
20260506020903 58 284 13.0 19.0 0.00 0.00 0.00 37
20260506020004 59 276 9.0 16.0 0.00 0.00 0.00 35
20260506015614 59 267 9.0 14.0 0.00 0.00 0.00 35
20260506014713 60 270 10.0 16.0 0.00 0.00 0.00 35
20260506013603 61 255 5.0 13.0 0.00 0.00 0.00 34
20260506012914 61 264 7.0 13.0 0.00 0.00 0.00 34
20260506011803 61 220 5.0 10.0 0.00 0.00 0.00 33
20260506010903 61 201 6.0 13.0 0.00 0.00 0.00 32
20260506010003 61 203 7.0 14.0 0.00 0.00 0.00 33
20260506005403 62 196 7.0 14.0 0.00 0.00 0.00 32
20260506004503 61 198 6.0 11.0 0.00 0.00 0.00 33
20260506003814 60 194 6.0 11.0 0.00 0.00 0.00 33
20260506002703 60 202 6.0 12.0 0.00 0.00 0.00 33
20260506001803 61 203 6.0 12.0 0.00 0.00 0.00 32
20260506000903 62 217 4.0 7.0 0.00 0.00 0.00 31
20260506000214 63 208 5.0 10.0 0.00 0.00 0.00 28
20260505235403 62 203 6.0 12.0 0.00 0.00 0.00 31
20260505234503 62 195 6.0 11.0 0.00 0.00 0.00 31
20260505233603 63 201 6.0 13.0 0.00 0.00 0.00 30
20260505232703 63 209 6.0 13.0 0.00 0.00 0.00 30
20260505232012 63 206 6.0 13.0 0.00 0.00 0.00 29
20260505231114 63 199 8.0 15.0 0.00 0.00 0.00 30
20260505230004 64 225 6.0 12.0 0.00 0.00 0.00 30
20260505225403 64 246 4.0 12.0 0.00 0.00 0.00 31
20260505224503 64 253 2.0 5.0 0.00 0.00 0.00 29
20260505223603 63 299 4.0 9.0 0.00 0.00 0.00 29
20260505222703 66 284 5.0 11.0 0.00 0.00 0.00 29
20260505221803 66 231 6.0 15.0 0.00 0.00 0.00 28
20260505221113 66 234 6.0 20.0 0.00 0.00 0.00 27
20260505220213 64 247 6.0 12.0 0.00 0.00 0.00 30
20260505215403 65 257 4.0 13.0 0.00 0.00 0.00 29
20260505214503 65 259 6.0 13.0 0.00 0.00 0.00 28
20260505213603 65 268 6.0 12.0 0.00 0.00 0.00 29
20260505212703 65 280 5.0 13.0 0.00 0.00 0.00 30
20260505211803 65 284 5.0 11.0 0.00 0.00 0.00 30
20260505210903 65 285 7.0 15.0 0.00 0.00 0.00 30
20260505210004 64 230 5.0 11.0 0.00 0.00 0.00 30
20260505205403 65 272 6.0 13.0 0.00 0.00 0.00 30
20260505204503 65 247 4.0 13.0 0.00 0.00 0.00 28
20260505203813 63 237 2.0 6.0 0.00 0.00 0.00 30
20260505202703 63 265 5.0 11.0 0.00 0.00 0.00 31
20260505201803 64 277 4.0 10.0 0.00 0.00 0.00 32
20260505200904 63 231 5.0 12.0 0.00 0.00 0.00 29
20260505200003 63 256 4.0 17.0 0.00 0.00 0.00 32
20260505195403 63 256 5.0 11.0 0.00 0.00 0.00 29
20260505194503 62 268 6.0 11.0 0.00 0.00 0.00 30
20260505193603 62 277 5.0 11.0 0.00 0.00 0.00 30
20260505192703 61 319 5.0 10.0 0.00 0.00 0.00 33
20260505191803 62 302 4.0 9.0 0.00 0.00 0.00 33
20260505190903 61 305 3.0 9.0 0.00 0.00 0.00 32
20260505190004 61 325 2.0 4.0 0.00 0.00 0.00 32
20260505185403 60 277 3.0 9.0 0.00 0.00 0.00 34
20260505184503 59 300 5.0 11.0 0.00 0.00 0.00 32
20260505183814 60 303 4.0 11.0 0.00 0.00 0.00 31
20260505182913 60 218 5.0 12.0 0.00 0.00 0.00 31
20260505181803 59 298 5.0 9.0 0.00 0.00 0.00 33
20260505180903 59 278 6.0 12.0 0.00 0.00 0.00 33
20260505180003 59 267 5.0 12.0 0.00 0.00 0.00 33
20260505175403 59 271 5.0 12.0 0.00 0.00 0.00 35
20260505174503 59 272 5.0 10.0 0.00 0.00 0.00 35
20260505173814 59 264 5.0 14.0 0.00 0.00 0.00 36
20260505172703 58 277 7.0 13.0 0.00 0.00 0.00 35
20260505171803 58 269 8.0 13.0 0.00 0.00 0.00 35
20260505170903 57 264 6.0 14.0 0.00 0.00 0.00 38
20260505170003 57 228 7.0 13.0 0.00 0.00 0.00 35
20260505165403 56 229 6.0 11.0 0.00 0.00 0.00 37
20260505164503 55 222 7.0 15.0 0.00 0.00 0.00 39
20260505163813 55 220 6.0 14.0 0.00 0.00 0.00 39
20260505162703 55 214 6.0 11.0 0.00 0.00 0.00 39
20260505161803 55 215 6.0 16.0 0.00 0.00 0.00 40
20260505160903 54 226 7.0 15.0 0.00 0.00 0.00 41
20260505152703 52 206 6.0 12.0 0.00 0.00 0.00 42
20260505151803 51 217 5.0 11.0 0.00 0.00 0.00 43
20260505150903 50 195 4.0 8.0 0.00 0.00 0.00 44
20260505150214 50 214 4.0 9.0 0.00 0.00 0.00 44
20260505140214 42 236 1.0 3.0 0.00 0.00 0.00 64
20260505124503 38 185 1.0 3.0 0.00 0.00 0.00 61
20260505123603 37 0 0.0 0.0 0.00 0.00 0.00 60
20260505122703 37 0 0.0 0.0 0.00 0.00 0.00 59
20260505121803 37 185 0.0 2.0 0.00 0.00 0.00 58
20260505120903 37 185 0.0 3.0 0.00 0.00 0.00 57
20260505120004 38 185 0.0 2.0 0.00 0.00 0.00 56
20260505115613 37 185 0.0 2.0 0.00 0.00 0.00 56
20260505114503 38 185 0.0 2.0 0.00 0.00 0.00 57
20260505113603 38 185 1.0 3.0 0.00 0.00 0.00 56
20260505112703 37 185 0.0 3.0 0.00 0.00 0.00 58
20260505111803 37 186 1.0 4.0 0.00 0.00 0.00 59
20260505111113 38 186 1.0 4.0 0.00 0.00 0.00 57
20260505101803 36 207 0.0 2.0 0.00 0.00 0.00 61
20260505100903 36 207 0.0 2.0 0.00 0.00 0.00 60
20260505100212 36 207 1.0 3.0 0.00 0.00 0.00 60
20260505095403 37 207 2.0 3.0 0.00 0.00 0.00 58
20260505094503 38 207 2.0 4.0 0.00 0.00 0.00 56
20260505093603 39 208 1.0 3.0 0.00 0.00 0.00 53
20260505092914 40 207 1.0 3.0 0.00 0.00 0.00 52
20260505091803 40 207 2.0 4.0 0.00 0.00 0.00 51
20260505090903 40 206 2.0 4.0 0.00 0.00 0.00 50
20260505090003 41 206 2.0 4.0 0.00 0.00 0.00 49
20260505085403 41 205 2.0 5.0 0.00 0.00 0.00 49
20260505084503 41 190 1.0 4.0 0.00 0.00 0.00 48
20260505083812 41 189 1.0 4.0 0.00 0.00 0.00 46
20260505082703 42 188 2.0 4.0 0.00 0.00 0.00 45
20260505082013 43 186 2.0 5.0 0.00 0.00 0.00 45
20260505081114 43 176 2.0 4.0 0.00 0.00 0.00 44
20260505080003 43 172 2.0 4.0 0.00 0.00 0.00 43
20260505075403 43 172 2.0 5.0 0.00 0.00 0.00 43
20260505074503 43 171 2.0 4.0 0.00 0.00 0.00 42
20260505073603 42 172 1.0 4.0 0.00 0.00 0.00 42
20260505072703 43 175 3.0 7.0 0.00 0.00 0.00 42
20260505071803 43 186 4.0 7.0 0.00 0.00 0.00 42
20260505070903 42 187 3.0 6.0 0.00 0.00 0.00 42
20260505070003 42 186 2.0 5.0 0.00 0.00 0.00 43